TimeCDT,TemperatureF,Dew PointF,Humidity,Sea Level PressureIn,VisibilityMPH,Wind Direction,Wind SpeedMPH,Gust SpeedMPH,PrecipitationIn,Events,Conditions,WindDirDegrees,DateUTC
12:53 AM,63.0,61.0,93,30.04,10.0,Calm,Calm,-,N/A,,Clear,0,2013-08-16 05:53:00
1:53 AM,63.0,61.0,93,30.03,9.0,Calm,Calm,-,N/A,,Mostly Cloudy,0,2013-08-16 06:53:00
2:53 AM,64.0,61.0,90,30.03,9.0,Calm,Calm,-,N/A,,Partly Cloudy,0,2013-08-16 07:53:00
3:53 AM,64.0,61.0,90,30.04,8.0,Calm,Calm,-,0.01,,Mostly Cloudy,0,2013-08-16 08:53:00
4:29 AM,64.4,60.8,88,30.07,7.0,Calm,Calm,-,N/A,Thunderstorm,Scattered Clouds,0,2013-08-16 09:29:00
4:49 AM,64.4,60.8,88,30.07,9.0,Calm,Calm,-,N/A,,Overcast,0,2013-08-16 09:49:00
4:53 AM,64.0,61.0,90,30.04,10.0,East,3.5,-,N/A,,Overcast,100,2013-08-16 09:53:00
5:53 AM,64.0,61.0,90,30.06,10.0,Calm,Calm,-,N/A,,Mostly Cloudy,0,2013-08-16 10:53:00
6:13 AM,64.4,62.6,94,30.08,9.0,NW,4.6,-,N/A,Thunderstorm,Overcast,310,2013-08-16 11:13:00
6:41 AM,64.4,62.6,94,30.09,10.0,Calm,Calm,-,N/A,,Mostly Cloudy,0,2013-08-16 11:41:00
6:53 AM,64.0,61.0,90,30.07,10.0,NE,3.5,-,N/A,,Scattered Clouds,50,2013-08-16 11:53:00
7:53 AM,64.9,61.0,87,30.09,10.0,East,3.5,-,N/A,,Mostly Cloudy,80,2013-08-16 12:53:00
8:01 AM,64.4,60.8,88,30.11,10.0,Calm,Calm,-,N/A,,Mostly Cloudy,0,2013-08-16 13:01:00
8:53 AM,66.0,62.1,87,30.11,10.0,ESE,5.8,-,N/A,,Overcast,120,2013-08-16 13:53:00
9:53 AM,68.0,63.0,84,30.11,10.0,SE,9.2,-,N/A,,Overcast,140,2013-08-16 14:53:00
10:53 AM,69.1,63.0,81,30.12,10.0,South,6.9,-,N/A,,Overcast,170,2013-08-16 15:53:00
11:10 AM,69.8,62.6,78,30.14,10.0,SE,4.6,-,N/A,,Overcast,130,2013-08-16 16:10:00
11:42 AM,71.6,64.4,78,30.14,10.0,Variable,4.6,-,N/A,,Overcast,0,2013-08-16 16:42:00
11:53 AM,72.0,64.0,76,30.12,10.0,South,3.5,-,N/A,,Overcast,170,2013-08-16 16:53:00
12:53 PM,73.9,64.0,71,30.11,10.0,East,5.8,-,N/A,,Overcast,80,2013-08-16 17:53:00
1:53 PM,78.1,66.0,66,30.09,10.0,Variable,6.9,-,N/A,,Partly Cloudy,0,2013-08-16 18:53:00
2:53 PM,79.0,64.0,60,30.08,10.0,SE,8.1,-,N/A,,Mostly Cloudy,130,2013-08-16 19:53:00
3:53 PM,78.1,63.0,60,30.07,10.0,SE,4.6,-,N/A,,Mostly Cloudy,140,2013-08-16 20:53:00
4:53 PM,81.0,64.0,56,30.06,10.0,SSE,8.1,-,N/A,,Mostly Cloudy,150,2013-08-16 21:53:00
5:53 PM,79.0,63.0,58,30.07,10.0,East,9.2,-,N/A,,Mostly Cloudy,100,2013-08-16 22:53:00
6:53 PM,79.0,63.0,58,30.08,10.0,ESE,9.2,-,N/A,,Mostly Cloudy,110,2013-08-16 23:53:00
7:53 PM,75.9,63.0,64,30.08,10.0,ESE,9.2,-,N/A,,Clear,110,2013-08-17 00:53:00
8:53 PM,73.0,62.1,68,30.09,10.0,ESE,10.4,-,N/A,,Clear,110,2013-08-17 01:53:00
9:53 PM,71.1,62.1,73,30.11,10.0,ESE,8.1,-,N/A,,Clear,110,2013-08-17 02:53:00
10:53 PM,69.1,62.1,78,30.12,10.0,ESE,6.9,-,N/A,,Clear,110,2013-08-17 03:53:00
11:53 PM,68.0,62.1,81,30.13,10.0,ESE,3.5,-,N/A,,Clear,120,2013-08-17 04:53:00